Lapse_Rate
3.2 4.4 5.7 6.3 6.5 6.5 5.8 5.1 4.9 6.4 5.6 5.1 5.0 5.2 5.0 7.1 8.2 8.0 7.8 8.4 9.1 9.1 9.3 8.8 9.2 9.0 9.1 8.8 9.3 8.9 8.9 8.7 8.1 8.3 8.6 8.8 8.8 8.7 8.6 8.6 8.4 8.5 7.9 8.2
1.6 2.3 3.2 4.4 5.9 6.2 5.7 4.6 4.9 5.4 6.0 5.3 5.2 5.2 6.0 7.2 7.9 7.7 7.4 8.3 8.7 8.9 9.2 8.3 9.2 9.1 8.8 8.9 9.0 8.9 8.8 8.7 8.7 8.6 8.5 8.7 8.8 8.9 9.0 8.6 8.5 8.4 6.9 8.0
2.5 2.3 2.6 3.3 4.0 5.5 5.3 5.0 4.7 5.3 5.7 5.5 5.4 5.5 6.4 6.9 7.9 7.7 7.6 8.2 8.8 8.7 8.9 8.4 8.6 9.1 9.0 8.9 8.5 8.6 8.5 8.4 8.5 8.4 8.7 8.9 8.6 8.9 8.6 8.8 8.4 8.3 8.2 8.2
3.5 2.9 2.8 3.6 4.0 5.0 5.0 4.9 4.8 5.3 5.2 5.3 4.7 5.2 6.7 7.0 7.5 7.5 7.5 8.1 8.7 8.5 8.8 8.9 8.9 8.8 8.4 7.9 8.0 8.3 8.2 8.3 8.2 8.4 8.3 8.5 8.5 8.7 8.5 8.7 8.7 8.4 8.6 8.3
4.1 3.2 3.8 3.5 4.0 5.3 5.7 5.1 4.9 5.0 5.2 5.4 5.1 5.2 6.2 7.1 7.7 7.7 7.8 7.8 8.6 8.4 8.4 8.6 8.7 8.6 8.4 8.2 8.2 8.1 8.0 7.9 7.8 7.9 8.1 8.2 8.2 8.4 8.3 8.4 8.5 8.3 8.4 8.5
4.5 4.4 4.8 3.6 4.3 5.3 5.9 5.1 4.9 5.1 5.0 5.4 5.3 5.5 6.3 6.8 7.9 7.8 8.1 8.1 8.4 8.7 8.5 8.6 8.6 8.6 8.4 7.9 8.0 8.0 7.8 7.7 7.6 7.6 7.7 7.8 7.7 8.1 8.3 8.4 8.6 8.7 8.5 8.5
5.2 5.0 5.4 4.2 4.6 5.3 5.4 5.1 5.4 5.4 5.1 5.3 5.7 6.3 6.5 6.9 7.7 7.6 8.2 8.3 8.4 8.3 8.3 8.4 8.5 8.3 8.0 7.9 7.6 7.8 7.8 7.8 7.4 7.2 7.3 5.7 7.9 7.9 8.1 8.2 8.0 8.0 8.0 7.9
5.4 5.7 5.5 5.0 5.0 5.5 5.5 5.4 5.6 5.9 5.2 5.4 6.0 6.3 6.8 7.8 8.0 8.1 8.4 8.2 8.4 8.3 8.2 8.2 8.2 7.9 7.7 7.3 7.1 7.6 7.8 7.7 7.4 7.1 7.1 7.4 7.8 7.7 8.0 8.2 7.8 7.7 7.9 7.6
5.6 5.9 5.6 5.6 5.5 5.6 5.5 5.7 5.9 6.2 5.7 5.4 6.3 6.4 7.2 7.9 7.9 8.1 7.9 7.9 8.3 8.3 7.8 8.1 7.8 7.7 7.9 7.4 7.4 7.5 7.5 7.5 7.2 6.8 6.9 5.0 7.4 7.7 7.7 7.8 7.3 7.1 7.6 7.7
6.4 6.5 5.5 5.7 6.0 5.6 6.2 6.0 5.7 5.8 5.6 6.0 6.5 6.9 7.1 8.0 8.0 7.7 7.5 6.8 7.8 8.0 7.8 7.9 7.7 7.7 7.8 7.2 7.3 7.1 6.9 6.7 6.8 6.9 7.0 7.1 7.0 7.4 7.7 7.5 6.9 6.6 6.8 6.9
7.5 7.0 5.6 5.6 6.2 5.7 6.4 6.1 5.7 6.0 5.9 6.9 6.7 7.4 7.9 8.2 7.7 7.5 7.3 6.2 7.9 7.8 7.9 7.7 7.5 7.6 7.7 7.5 7.5 7.3 7.2 7.0 6.8 6.6 6.5 6.5 7.0 6.9 6.9 7.0 6.8 6.6 6.6 6.6
8.0 6.8 5.9 5.8 6.3 5.8 6.2 5.9 5.9 6.3 6.4 6.4 6.9 7.1 7.9 7.7 7.5 7.4 7.4 7.4 7.9 7.6 7.7 7.6 7.4 7.5 7.6 7.5 7.1 7.1 7.1 7.2 7.2 7.2 7.0 6.9 6.7 6.7 6.6 6.5 6.5 6.6 6.5 6.4
7.3 6.1 5.3 5.9 5.9 6.0 6.5 6.8 6.3 6.2 6.2 6.9 7.0 7.1 7.5 7.3 7.0 7.4 7.8 7.4 7.6 7.6 7.9 7.9 7.7 7.4 7.6 7.4 7.3 7.2 7.0 7.0 6.9 6.9 6.9 6.7 6.4 6.2 6.0 6.0 6.3 6.5 6.3 6.1
6.5 5.4 5.2 6.1 6.2 6.5 6.8 6.7 6.3 6.3 6.6 5.7 6.7 7.2 7.8 7.7 6.8 7.9 7.5 7.5 7.5 7.6 7.6 7.8 7.7 7.6 7.5 7.5 7.4 7.2 7.1 7.0 6.9 6.9 6.9 6.6 6.4 6.2 6.0 6.0 6.1 6.0 6.0 5.9
5.5 5.3 5.3 6.1 6.4 6.5 7.1 6.8 6.5 6.2 6.4 6.1 6.7 7.0 7.6 7.6 7.0 7.3 7.2 7.3 7.3 7.5 7.7 7.6 7.6 7.5 7.5 7.4 7.2 7.1 7.1 7.0 7.0 6.7 6.7 6.7 6.7 6.6 6.5 6.4 6.2 6.0 6.0 6.1
5.1 5.3 6.4 6.6 6.9 6.9 6.5 6.0 6.2 6.2 6.1 5.9 6.3 7.1 7.1 7.3 7.6 7.6 7.4 7.3 7.5 7.5 7.6 7.6 7.5 7.5 7.5 7.4 7.2 7.1 7.1 7.1 7.1 7.0 6.8 6.7 6.5 6.4 6.4 6.4 6.3 6.2 6.3 6.4
6.1 6.6 6.7 6.6 6.7 6.7 5.9 6.3 6.5 6.2 6.2 6.9 7.5 7.7 7.8 7.7 7.6 7.6 7.4 7.1 7.3 7.3 7.3 7.3 7.4 7.6 7.5 7.3 7.2 7.1 7.1 7.1 7.0 6.9 6.7 6.6 6.6 6.7 6.6 6.4 6.3 6.4 6.5 6.3
6.9 6.4 6.6 6.2 6.0 6.2 6.2 6.6 6.6 6.2 6.1 7.0 6.9 6.7 6.9 7.1 7.2 7.2 7.2 7.0 6.9 7.0 7.1 7.2 7.4 7.5 7.4 7.2 7.1 7.2 7.2 7.2 7.1 7.1 7.0 6.8 6.7 6.6 6.6 6.4 6.4 6.4 6.3 6.1
6.4 6.1 5.9 6.2 5.9 5.9 6.5 6.6 6.3 6.5 6.9 6.9 6.9 6.8 6.6 6.4 6.8 6.8 7.0 7.0 6.9 6.8 6.8 7.0 7.3 7.3 7.1 7.0 7.1 7.3 7.2 7.2 7.2 7.4 7.3 7.1 6.8 6.6 6.2 6.3 6.2 6.1 5.9 5.8
6.2 6.0 6.5 6.3 6.7 6.6 6.6 6.6 6.6 6.6 6.7 6.6 6.6 6.3 6.1 6.0 6.3 6.6 6.7 6.7 6.7 6.8 6.7 6.8 7.0 7.0 7.1 7.1 7.3 7.4 7.4 7.2 7.3 7.3 7.2 7.0 6.8 6.5 6.5 6.4 6.0 5.8 5.6 5.6
6.6 6.4 6.5 6.8 6.6 6.7 6.7 6.7 6.2 6.0 6.0 6.4 6.5 6.1 5.9 6.1 6.4 6.7 6.8 6.8 6.8 6.8 6.9 6.8 6.7 6.8 7.0 6.9 7.5 7.3 7.4 7.5 7.4 7.2 7.0 6.7 6.7 6.6 6.3 5.8 5.5 5.4 5.5 5.5
6.5 6.4 6.5 6.5 6.4 6.1 6.3 6.1 5.9 6.2 6.1 6.3 6.6 6.9 6.3 6.3 6.4 6.5 6.6 6.9 6.8 6.9 6.7 6.8 6.7 7.0 7.5 7.5 7.4 7.4 7.5 7.3 7.2 7.0 6.7 6.4 6.2 5.8 5.5 5.2 5.3 5.3 5.4 5.3
6.9 6.9 6.7 6.5 6.4 6.5 5.7 5.7 5.9 6.6 6.6 6.6 6.8 6.6 6.6 6.5 6.5 6.5 6.6 6.6 6.2 6.2 6.3 6.6 7.0 7.4 7.2 7.2 7.3 7.5 7.6 7.5 7.1 6.3 6.0 5.6 5.4 5.2 5.1 5.1 5.0 5.2 5.1 5.0
7.1 7.0 6.7 6.5 6.3 6.3 6.8 7.1 7.2 7.3 7.2 6.8 6.4 6.4 6.4 6.6 6.5 6.5 6.4 6.4 6.3 5.8 5.8 6.4 7.1 7.1 7.0 7.3 7.3 7.4 7.4 6.6 5.9 5.8 5.5 5.4 5.2 5.0 4.9 5.0 4.9 4.8 4.8 4.6
6.9 6.9 6.7 6.6 6.6 7.0 7.1 7.0 6.5 6.5 7.0 7.0 6.7 6.4 6.6 6.8 6.9 6.9 6.7 6.4 5.7 5.3 5.2 6.3 6.6 6.7 6.7 6.8 6.9 6.4 5.6 5.5 5.6 5.6 5.2 5.0 4.9 4.8 4.7 4.7 4.6 4.6 4.7 5.0
6.7 6.6 6.5 6.7 6.9 6.9 7.1 7.1 6.9 6.5 6.4 6.4 6.1 6.3 6.6 6.9 6.9 6.7 6.4 5.7 5.3 5.2 5.7 5.9 5.9 6.0 6.2 5.8 5.5 5.6 5.6 5.6 5.5 5.2 5.0 4.7 4.6 4.6 4.7 4.6 4.7 5.1 5.2 5.3
6.2 5.9 6.0 6.0 6.1 6.3 6.4 6.2 5.9 5.8 5.9 5.9 6.1 6.3 6.3 6.1 6.1 5.9 5.5 5.5 5.5 5.3 5.4 5.5 5.5 5.4 5.5 5.6 5.7 5.7 5.4 5.2 5.0 4.8 4.7 4.6 4.5 4.6 4.8 5.0 5.2 5.2 5.2 5.2
Wind_Speed
30 30 35 38 33 32 20 4 8 12 15 7 5 12 10 12 18 14 14 2 5 7 6 8 9 9 4 9 8 10 7 5 3 11 14 7 6 4 6 5 4 2 4 5
32 30 32 38 38 38 11 3 5 11 12 12 11 7 14 16 19 19 7 3 3 2 4 4 7 5 4 4 6 5 2 1 2 6 5 6 4 5 4 4 3 5 5 5
33 34 24 28 40 41 11 4 8 6 8 6 18 17 17 20 13 20 17 6 7 5 8 16 9 2 3 5 3 1 6 2 6 6 7 3 3 5 6 5 4 3 5 5
32 33 27 26 35 41 10 4 8 8 11 16 10 19 15 21 14 14 11 7 8 7 4 2 5 5 3 3 3 3 5 4 1 3 5 5 1 5 7 5 6 7 7 6
29 32 29 28 34 40 12 3 9 5 4 16 16 19 20 25 20 16 14 6 10 7 5 7 5 8 5 6 2 4 1 2 2 2 5 7 4 8 7 6 3 2 5 6
32 30 29 28 34 32 4 4 4 8 8 18 17 22 22 21 20 12 14 9 5 7 5 6 6 5 8 6 7 5 5 5 3 3 4 6 6 7 5 6 5 3 5 7
29 31 29 30 31 37 1 7 2 5 8 15 22 21 17 25 21 11 10 8 8 4 11 8 8 12 14 15 11 2 5 4 3 2 3 2 8 4 3 4 3 7 9 10
26 27 28 28 33 38 11 3 2 2 3 14 19 21 24 17 16 14 4 1 9 10 5 4 4 5 5 6 8 5 3 4 2 4 4 5 8 3 3 3 4 5 8 7
24 26 25 30 31 33 14 11 3 4 2 16 21 22 21 10 7 3 4 6 1 7 3 4 5 4 6 5 4 7 6 5 4 2 4 6 6 2 3 4 2 5 8 7
30 27 29 27 28 26 12 7 9 4 3 5 12 21 17 6 5 6 5 2 3 5 3 3 3 3 6 5 8 4 3 3 5 2 2 7 6 5 1 6 6 3 5 5
24 25 24 23 25 18 11 8 9 2 3 6 3 10 7 5 5 6 11 4 3 3 4 4 3 3 4 4 7 7 6 5 3 3 2 5 5 4 7 6 3 6 5 3
22 24 23 22 23 21 10 6 6 5 4 5 7 4 7 6 9 7 4 8 7 5 4 2 4 2 2 3 2 3 1 6 5 6 5 7 2 7 5 6 5 3 5 6
24 24 22 23 20 21 17 7 1 3 3 6 7 5 3 5 6 6 5 2 5 3 4 4 3 3 4 3 4 3 2 3 4 5 2 5 6 2 7 8 9 11 11 10
23 23 22 22 22 23 15 5 3 3 4 3 1 3 6 4 6 13 4 6 6 7 4 3 4 4 3 4 4 4 5 4 5 2 3 10 9 8 11 13 12 16 16 15
20 21 19 19 18 18 8 3 6 4 3 3 2 4 5 4 6 10 10 7 6 4 3 3 3 3 4 2 3 1 3 6 4 4 1 9 4 8 12 15 13 12 14 15
21 19 18 19 19 18 4 2 9 11 8 3 2 3 7 6 7 8 9 5 2 3 4 2 2 1 4 3 3 1 6 8 4 5 8 15 13 15 15 16 14 14 15 13
21 18 17 17 20 8 4 3 2 3 3 1 3 4 6 4 5 4 4 3 3 3 2 2 3 1 4 3 4 6 7 9 8 7 12 7 4 9 13 15 14 16 13 11
18 21 19 18 14 6 4 3 7 5 2 3 3 2 4 5 2 2 3 2 3 5 2 3 3 2 2 2 6 8 9 10 11 13 14 16 16 15 13 11 11 12 9 7
23 23 21 6 4 6 5 6 10 0 4 4 3 3 2 2 3 1 4 3 3 2 2 1 4 2 1 3 10 7 6 6 11 14 15 15 15 14 11 8 8 11 9 8
24 8 5 3 1 7 5 3 4 5 3 4 3 2 1 2 2 2 2 2 2 2 3 1 3 2 3 6 7 6 5 13 15 16 11 14 13 11 11 11 10 9 9 8
2 3 3 2 5 3 4 3 4 1 4 3 1 3 1 3 3 3 0 2 1 3 3 4 1 1 4 8 8 8 12 13 11 13 14 13 14 11 11 9 10 9 8 8
5 8 4 3 4 4 6 3 4 5 3 3 2 1 2 2 2 3 1 3 2 2 1 2 2 1 10 9 7 12 14 15 16 16 15 14 12 11 10 8 9 9 9 7
4 5 5 3 4 7 1 2 2 2 2 1 2 2 1 3 3 2 2 2 1 1 2 2 0 7 6 8 9 13 14 14 16 15 14 14 12 11 10 9 8 9 9 6
4 4 6 3 3 2 2 3 2 1 2 1 3 3 2 1 4 1 4 0 3 2 4 3 3 6 6 4 8 12 14 13 13 12 11 12 12 10 9 8 7 6 7 7
5 5 5 3 1 2 0 1 2 2 2 3 2 3 2 2 3 2 3 3 4 2 2 1 4 7 5 10 13 12 12 11 10 9 11 10 10 9 9 6 5 6 5 6
4 6 3 2 2 3 3 4 3 3 3 2 2 2 2 3 1 2 3 3 2 1 1 1 6 6 9 11 11 10 10 10 9 9 9 9 8 7 8 7 5 4 5 5
4 3 2 2 3 3 2 2 2 1 1 2 1 4 1 1 3 3 3 2 2 1 2 3 5 7 10 10 8 8 11 10 10 9 8 7 7 7 5 6 5 5 4 4
Wind_Direction
223 230 222 205 189 174 165 210 194 152 147 174 202 220 214 241 255 260 265 262 222 202 197 208 201 205 121 322 160 131 203 148 144 218 229 204 195 214 170 125 256 187 149 266
219 223 215 206 187 177 167 206 150 172 169 196 211 200 226 239 251 260 266 211 226 273 173 9 193 117 191 132 42 135 168 177 61 338 332 347 235 227 228 130 92 187 133 259
217 212 206 209 192 183 178 194 166 169 218 228 193 194 207 226 249 257 265 213 263 290 166 174 227 121 37 60 107 165 93 149 151 188 214 211 269 232 255 154 113 204 204 267
207 206 197 214 199 188 190 210 202 168 191 207 208 188 200 209 230 223 235 220 217 215 180 200 189 108 97 139 217 134 117 165 293 290 324 321 297 282 277 247 203 152 236 226
204 203 191 221 205 187 204 186 187 160 175 183 205 190 211 203 223 236 225 204 216 215 172 175 205 133 153 177 180 139 121 198 96 289 348 35 351 329 327 318 312 265 234 242
199 196 190 218 206 190 183 233 289 166 168 179 192 203 195 203 217 239 199 211 173 192 178 112 86 84 90 118 134 164 128 122 94 239 356 17 346 240 242 255 281 254 289 262
197 195 192 212 209 198 229 217 314 188 178 183 200 188 200 207 222 239 196 213 168 170 104 56 37 48 72 68 343 211 125 112 96 180 36 49 241 241 143 164 42 48 74 77
193 191 196 205 202 198 213 283 232 258 186 189 191 196 197 215 224 222 142 119 145 133 70 83 69 1 50 161 177 76 129 129 101 134 182 282 320 19 80 98 48 46 82 57
198 201 200 197 191 191 203 237 310 269 191 210 189 191 197 206 191 47 76 353 316 95 97 91 130 177 178 158 123 30 57 86 113 122 141 198 235 143 20 54 73 42 66 47
198 190 193 184 175 184 201 229 210 268 218 249 185 189 201 179 134 120 98 334 38 53 93 86 116 234 169 158 156 173 44 17 142 123 171 288 248 141 98 91 222 93 67 78
174 179 172 167 165 168 190 227 233 306 298 283 263 179 156 196 142 139 148 213 314 42 83 110 191 123 232 97 167 170 159 141 182 91 100 282 185 56 133 199 106 86 59 69
175 169 165 165 170 169 174 234 220 236 257 286 324 77 160 188 173 126 145 183 176 169 97 62 91 48 41 121 199 193 90 171 175 161 211 230 140 132 157 127 129 100 82 48
171 169 170 170 172 173 186 208 195 176 268 301 278 103 18 49 97 127 126 201 155 115 147 148 136 127 129 131 247 126 102 130 108 77 281 194 194 117 78 88 89 78 76 69
169 168 171 176 182 186 188 202 247 286 270 249 156 102 47 8 68 90 115 127 69 100 66 93 123 138 179 204 191 137 198 118 156 224 286 87 47 60 86 73 68 85 67 55
168 174 174 178 172 163 173 200 246 266 322 285 262 138 47 65 62 80 82 87 96 91 74 87 180 157 94 318 73 283 173 174 147 206 168 105 77 67 85 78 69 76 83 68
172 173 171 164 144 140 153 169 257 217 218 249 76 293 4 73 86 94 101 114 117 90 118 172 55 81 106 115 165 337 103 72 94 137 89 100 97 74 70 82 78 75 76 77
170 163 156 141 147 177 188 186 186 222 170 177 49 7 341 354 58 27 48 63 63 99 92 75 131 82 82 113 144 154 99 95 81 80 109 92 112 109 89 86 83 83 84 82
145 148 135 143 164 3 317 250 259 246 196 71 92 307 26 11 32 41 347 88 50 15 119 17 102 19 66 87 118 113 111 101 88 78 77 104 103 91 91 99 105 98 97 105
138 134 129 125 185 186 208 240 246 237 110 112 86 122 187 27 23 17 23 46 61 349 98 149 85 333 119 169 130 118 116 147 123 98 95 97 98 104 106 106 99 91 88 81
120 126 180 151 318 334 308 19 32 24 12 39 95 98 43 70 42 22 75 12 151 104 251 80 89 115 80 58 80 80 104 119 117 109 112 116 113 116 103 96 93 91 83 77
212 59 26 348 334 31 25 43 74 2 41 30 22 115 212 5 117 140 185 164 25 87 260 115 232 156 146 101 79 69 73 80 82 107 109 116 117 119 111 95 89 85 79 78
146 113 129 43 23 30 60 21 352 42 62 1 55 358 81 315 149 106 348 104 51 96 191 97 142 51 111 105 98 99 94 94 97 102 107 104 103 103 100 94 95 92 94 86
51 52 58 34 2 40 119 171 352 64 21 332 18 41 71 10 40 57 84 77 141 105 70 225 308 120 119 116 113 111 110 107 96 92 90 91 90 88 99 97 103 102 95 84
67 61 61 48 109 86 27 35 54 289 264 30 74 44 68 37 49 83 95 286 78 151 177 210 131 144 131 123 128 116 113 104 98 98 100 102 99 92 83 84 89 94 97 91
63 39 57 61 111 51 53 206 102 347 275 37 48 42 77 26 88 62 122 145 171 155 147 100 139 139 132 106 105 105 105 104 104 115 117 111 108 107 104 96 93 94 95 98
52 40 58 5 60 21 20 17 18 353 351 355 62 138 87 51 95 80 28 116 74 90 60 97 123 111 102 116 110 115 117 119 122 122 121 121 122 121 121 117 111 110 112 115
43 28 6 34 60 41 28 341 300 270 71 61 34 60 74 262 76 61 15 46 37 87 93 90 95 103 120 125 128 117 120 115 118 115 109 112 119 126 118 111 145 136 94 98